SCP
0 0 0 0 0 0 0 0 0 0 0 0 0 0 0 0 0 0 0 0 -0 -0 -0 -0 -0 -0 -0 -0 0 0 0 0 0 0 0 0 0 0 0 0 0 0 0
0 0 0 0 0 0 0 0 0 0 0 0 0 0 0 0 0 0 0 0 0 0 -0 -0 -0 -0 -0 0 0 0 0 0 0 0 0 0 0 0 0 0 0 0 0
0 0 0 0 0 0 0 0 0 0 0 0 0 0 0 0 0 0 0 0 0 0 0 0 0 0 0 0 0 0 0 0 0 0 0 0 0 0 0 0 0 0 0
0 0 0 0 0 0 0 0 0 0 0 0 0 0 0 0 0 0 0 0 0 0 0 0 0 0 0 0 0 0 0 0 0 0 0 0 0 0 0 0 0 0 0
0 0 0 0 0 0 0 0 0 0 0 0 0 0 0 0 0 0 0 0 0 0 0 0 0 0 0 0 0 0 0 0 0 0 0 0 0 0 0 0 0 0 0
0 0 0 0 0 0 0 0 0 0 0 0 0 0 0 0 0 0 0 0 0 0 0 0 0 0 0 0 0 0 0 0 0 0 0 0 0 0 0 0 0 0 0
0 0 0 0 0 0 0 0 0 0 0 0 0 0 0 0 0 0 0 0 0 0 0 0 0 0 0 0 0 0 0 0 0 0 0 0 0 0 0 0 0 0 0
0 0 0 0 0 0 0 0 0 0 0 0 0 0 0 0 0 0 0 0 0 0 0 0 0 0 0 0 0 0 0 0 0 0 0 0 0 0 0 0 0 0 0
0 0 0 0 0 0 0 0 0 0 0 0 0 0 0 0 0 0 0 0 0 0 0 0 0 0 0 0 0 0 0 0 0 0 0 0 0 0 0 0 0 0 0
0 0 0 0 0 0 0 0 0 0 0 0 0 0 0 0 0 0 0 0 0 0 0 0 0 0 0 0 0 0 0 0 0 0 0 0 0 0 0 0 0 0 0
0 0 0 0 0 0 0 1 1 1 1 1 1 1 1 0 0 0 0 1 0 0 0 0 0 0 0 0 0 0 0 0 0 0 0 1 1 0 0 0 0 0 0
0 0 0 0 1 1 1 1 1 1 1 1 1 1 1 1 1 1 1 1 1 0 0 0 0 0 0 0 0 1 0 0 0 0 1 1 1 0 0 0 0 0 0
-0 0 0 0 0 0 1 1 1 1 1 1 1 1 1 1 1 1 1 1 1 1 1 1 1 1 0 0 1 1 0 0 0 0 1 1 1 0 0 0 0 0 0
0 0 0 0 0 0 1 1 1 1 1 1 1 1 1 2 1 1 1 1 1 1 1 1 1 1 1 1 1 0 0 0 1 1 1 1 1 1 0 0 0 0 0
0 0 0 0 0 0 1 1 1 1 1 1 1 1 1 2 2 2 2 2 2 1 1 1 1 1 1 1 1 1 1 1 1 1 1 1 1 1 0 0 0 0 0
0 0 0 0 0 1 1 1 1 1 1 1 1 1 1 1 2 2 2 2 2 2 1 1 1 1 1 1 1 1 1 1 1 1 1 1 1 1 1 1 0 0 0
1 1 1 1 1 1 1 1 1 1 1 1 1 1 1 1 1 1 1 1 1 1 1 1 1 1 1 1 1 1 1 1 1 1 1 1 1 1 1 1 1 1 1
1 1 1 1 1 1 1 1 1 1 1 1 1 1 1 1 1 1 1 1 1 1 2 2 2 2 1 1 1 1 1 1 1 1 1 1 1 1 1 1 1 1 1
1 1 1 1 1 1 1 1 1 1 1 1 1 1 1 1 1 1 1 1 1 1 1 2 2 2 2 2 2 1 1 1 1 1 1 1 1 1 1 1 1 1 1
1 1 1 1 1 1 1 1 1 1 1 0 0 0 0 0 0 0 0 1 1 1 1 1 2 2 2 2 2 1 1 1 2 2 2 1 1 1 1 1 1 1 1
2 1 1 1 1 1 1 0 0 0 0 0 0 0 0 0 0 0 0 0 0 1 1 1 1 1 1 1 1 1 1 1 1 2 2 2 1 1 1 1 1 1 1
2 1 1 1 1 0 0 0 0 0 0 0 0 0 0 0 0 0 0 0 0 0 0 1 1 1 1 1 1 1 1 1 1 1 1 2 1 1 1 1 1 1 1
1 1 1 1 1 0 0 0 0 0 0 0 0 0 0 0 0 0 0 0 0 0 0 0 1 1 1 1 1 1 1 1 1 1 1 1 1 1 1 1 1 1 1
1 1 1 1 1 1 1 1 0 0 0 0 0 0 0 0 0 0 0 0 0 0 0 0 0 0 1 1 1 1 1 1 1 1 1 1 1 1 1 1 1 1 1
1 1 1 1 1 1 1 1 1 0 0 0 0 0 0 0 0 0 0 0 0 0 0 0 0 0 0 1 1 1 1 1 1 1 1 1 1 1 1 1 1 1 1
1 1 1 1 1 1 1 1 1 1 0 0 0 0 0 0 0 0 0 0 0 0 0 0 0 0 0 0 1 1 1 1 1 1 1 1 1 1 1 1 1 1 1
Wind_Speed
13 17 19 16 14 13 12 12 13 14 15 15 15 14 13 12 10 9 9 9 9 8 8 8 8 8 8 9 10 10 10 10 9 9 9 9 8 8 8 7 6 8 11
15 19 19 16 14 13 12 12 13 13 14 14 14 13 12 11 10 9 9 8 8 8 8 7 7 7 7 7 8 9 9 9 8 8 9 9 8 7 7 5 2 8 9
17 19 19 15 15 14 13 13 13 13 13 13 13 12 11 11 10 10 9 8 8 8 7 7 6 6 6 6 6 7 7 8 7 7 8 7 9 7 6 5 3 8 8
17 17 17 17 15 14 13 13 13 13 13 12 12 11 10 9 9 9 9 8 7 7 7 6 6 6 5 5 5 5 5 6 6 7 8 4 6 10 7 6 6 7 8
16 15 17 18 16 14 13 13 12 12 12 12 11 10 10 9 8 8 7 7 7 6 6 5 5 5 5 5 4 4 5 5 5 9 5 3 3 9 7 8 8 8 9
16 15 18 18 16 15 13 12 12 12 11 11 11 10 10 9 9 8 8 7 7 6 5 5 5 5 5 5 5 6 6 6 8 10 6 6 5 9 8 10 11 10 10
15 14 18 17 16 15 14 13 12 11 11 10 10 9 9 8 8 8 8 7 7 6 6 5 5 5 5 5 6 7 8 8 11 8 6 7 5 9 9 11 13 13 13
15 15 17 17 16 15 14 13 12 11 11 10 10 10 9 9 8 8 8 8 8 8 7 7 7 7 7 7 7 8 8 10 11 9 8 8 6 8 9 11 13 15 16
13 13 15 16 15 15 14 13 13 12 11 11 11 10 10 9 9 9 9 9 10 9 9 9 9 9 9 9 9 9 10 10 12 9 8 7 8 9 11 11 11 13 16
11 12 12 14 14 13 14 14 12 12 12 12 12 11 11 11 11 11 11 12 11 11 11 11 11 11 10 10 10 10 10 10 13 12 7 6 11 10 11 12 11 11 14
10 10 11 12 12 12 12 13 14 13 13 13 13 14 12 11 12 11 13 9 10 12 12 13 13 12 11 12 14 13 11 10 12 9 7 5 10 10 13 13 13 12 12
11 11 10 10 11 10 9 9 10 11 12 12 11 12 11 9 8 8 4 8 11 13 14 15 14 13 13 11 13 15 9 12 11 9 7 9 10 12 14 14 14 14 14
11 11 11 10 9 10 7 7 6 6 6 9 11 10 9 8 7 7 6 8 11 12 11 11 12 10 11 9 7 7 9 9 7 7 6 12 12 14 15 15 15 15 15
9 10 10 10 9 9 8 6 6 6 6 7 8 10 8 6 7 7 6 7 7 6 7 8 7 9 10 11 11 11 11 8 8 7 5 9 12 14 15 15 15 15 15
9 9 9 9 9 8 7 7 6 7 7 7 6 7 9 7 8 7 6 6 8 7 7 7 8 9 10 11 11 12 12 12 11 10 7 10 13 15 16 16 15 15 15
9 9 9 9 9 8 7 7 6 7 6 7 6 8 9 7 8 8 8 8 8 8 7 7 9 9 9 8 11 12 13 13 11 11 11 10 14 16 16 16 15 15 15
9 8 8 9 9 9 9 9 7 7 7 6 6 7 8 8 9 8 8 9 9 8 9 8 10 9 9 10 12 13 12 13 13 12 12 11 10 14 17 17 16 15 15
8 8 8 7 8 8 7 7 6 6 5 5 5 5 7 7 8 7 8 8 8 8 8 8 9 9 10 10 10 11 10 10 14 14 13 13 11 11 12 18 17 16 16
7 7 7 7 7 6 6 5 5 4 5 4 4 4 4 5 5 5 6 5 7 7 7 9 8 9 10 10 10 11 11 12 12 13 15 15 14 12 11 10 16 17 17
6 6 6 6 6 5 4 3 3 4 4 4 3 2 4 4 4 6 6 6 8 8 8 8 9 9 10 10 11 12 11 12 11 13 14 13 13 14 14 13 11 13 18
7 6 6 5 5 4 3 3 3 3 3 3 3 2 3 4 5 5 7 7 8 9 9 11 11 12 11 9 10 12 12 14 14 12 12 12 13 14 13 13 11 10 8
8 7 6 6 6 5 3 2 3 4 4 4 4 3 4 5 5 6 6 8 8 8 10 11 11 11 11 9 10 11 12 12 12 13 12 12 13 12 13 13 12 10 10
8 7 5 5 5 5 4 4 3 4 5 5 5 4 3 5 6 6 7 9 9 10 10 10 11 13 12 12 11 11 11 11 10 9 11 10 10 10 11 10 11 10 10
7 6 6 6 6 6 6 6 7 6 6 6 5 4 4 5 6 6 7 8 9 9 9 10 11 11 12 12 11 11 13 13 11 10 8 9 10 10 10 8 8 9 9
4 4 5 6 7 7 7 7 7 8 6 5 4 4 6 5 6 6 7 8 8 9 9 10 10 11 10 12 11 11 12 11 13 12 11 9 8 9 8 8 7 6 5
4 6 7 7 8 8 8 8 8 8 7 7 7 6 6 5 5 6 6 7 8 8 9 10 10 12 11 12 12 12 11 10 11 11 13 11 9 6 5 4 4 3 3
Wind_Direction
152 141 148 158 153 147 141 135 132 135 137 137 136 136 138 140 140 134 127 122 119 116 112 110 107 105 104 102 108 118 118 118 119 123 123 121 120 120 122 128 169 125 115
144 141 149 158 154 149 144 139 135 135 136 136 137 139 142 143 141 138 135 132 129 128 125 122 117 112 111 111 114 120 126 127 130 134 137 135 127 125 131 148 303 105 133
144 142 153 157 155 151 148 145 142 140 140 140 141 143 145 147 147 147 146 143 140 137 135 133 129 125 123 123 126 128 131 138 145 154 187 170 135 142 148 155 131 129 149
145 146 155 154 158 155 153 151 149 147 146 145 146 148 150 152 153 156 156 157 156 152 150 148 144 140 139 141 143 145 144 149 162 185 214 161 154 146 176 177 172 166 169
144 147 146 157 160 158 157 157 156 154 153 154 155 157 160 163 166 168 169 170 172 171 170 169 167 163 163 165 168 171 174 180 187 227 223 204 183 139 187 190 192 190 186
148 152 146 162 162 162 162 162 163 162 163 163 164 167 170 174 178 182 184 187 190 192 195 195 193 190 193 195 198 202 206 210 223 228 210 220 207 152 193 196 198 204 202
155 153 149 164 164 166 167 169 170 171 172 173 175 179 183 188 193 197 199 201 205 211 218 222 223 221 222 227 229 226 222 224 246 253 227 230 218 157 206 213 205 205 209
157 158 147 163 167 169 172 174 176 179 181 185 187 191 197 203 210 217 219 220 222 225 230 235 238 240 238 240 243 245 242 247 247 245 238 237 188 175 226 237 224 213 209
161 159 155 166 171 174 177 181 184 187 191 196 200 203 207 213 219 227 233 234 233 234 237 240 242 246 246 246 247 246 245 248 267 257 242 237 165 194 232 247 244 227 217
166 169 166 174 172 179 181 186 192 196 199 204 209 213 215 219 223 227 235 229 233 238 242 246 249 252 251 250 250 246 243 245 250 255 244 218 163 203 232 243 247 239 227
175 180 182 180 178 189 191 180 193 201 206 210 212 215 221 229 226 215 224 220 234 243 247 250 252 255 255 245 242 244 242 247 252 257 258 165 168 215 239 243 242 240 235
182 187 191 194 183 199 203 187 205 209 205 215 223 216 220 233 246 252 204 218 244 252 255 251 251 254 251 248 228 217 240 243 254 253 239 169 191 225 240 242 242 240 239
180 188 191 197 192 207 211 215 217 225 222 225 232 233 239 248 246 247 244 219 226 235 245 243 238 245 252 257 269 251 252 261 258 258 241 177 202 227 238 238 239 240 239
176 182 191 190 200 214 228 229 234 238 229 232 231 236 241 248 255 259 257 263 258 245 247 259 260 258 262 269 264 263 263 259 262 261 254 192 209 229 240 239 238 240 239
174 182 187 195 202 211 224 247 247 253 255 242 242 241 242 247 256 260 264 266 271 270 262 258 266 271 268 268 267 263 261 260 261 265 258 211 214 229 240 243 241 240 239
182 184 186 198 202 209 218 230 246 252 251 264 256 254 256 258 261 264 263 263 264 266 268 266 265 266 266 267 269 270 268 263 259 257 262 248 215 219 231 240 244 244 242
188 191 195 203 206 212 224 232 240 247 248 252 258 264 263 262 265 265 266 263 261 259 256 256 260 259 257 257 258 259 260 259 258 255 256 262 256 223 217 226 234 240 243
199 197 207 217 211 216 231 248 259 265 269 273 278 276 278 277 270 269 267 268 269 264 258 254 252 254 252 251 255 258 257 255 251 249 249 246 251 257 229 215 221 228 235
206 209 211 218 221 223 233 243 257 268 274 272 271 279 291 291 295 284 280 283 280 271 266 266 263 260 262 259 256 252 248 247 246 244 244 247 247 248 255 228 210 217 228
187 192 198 198 202 210 217 224 246 256 260 260 268 271 285 290 299 303 292 295 293 283 276 271 274 266 265 265 266 266 259 252 246 242 242 241 243 246 248 250 235 219 219
161 167 175 175 166 186 196 231 236 249 259 259 260 272 278 294 304 296 295 299 285 284 287 286 280 272 263 262 263 261 257 251 245 245 243 245 243 242 245 247 249 251 230
157 161 167 174 171 192 187 233 267 294 282 290 283 264 274 291 300 293 299 293 289 289 279 275 273 275 274 260 257 266 263 254 237 235 235 236 242 243 241 238 238 239 251
167 173 183 185 192 210 212 228 228 239 249 245 251 250 271 298 299 303 297 294 297 287 283 282 279 270 269 266 252 255 264 261 261 241 225 234 241 241 241 239 233 235 238
181 189 202 211 218 221 226 241 254 271 284 297 292 292 292 282 291 293 291 290 288 287 286 278 272 273 269 266 259 248 255 274 278 267 234 221 224 234 242 240 238 234 236
214 229 231 233 234 230 234 240 249 257 271 278 279 272 276 279 277 282 289 293 289 285 288 286 281 272 268 265 265 260 250 249 250 258 261 248 221 221 225 229 241 249 247
298 282 267 253 247 240 234 239 244 259 266 275 273 281 274 277 274 276 287 289 286 289 288 281 277 272 267 265 264 264 259 250 241 239 245 247 243 230 218 228 239 243 236